Flag for Germany Weather for the Past 2 Weeks in Menden (Sauerland), North Rhine-Westphalia, Germany

Now
39 °F

Clear.


Feels Like: 33 °F
Forecast: 35 / 52 °F
Wind: 9 mph from South

Location: Dortmund / Wickede

Current Time: Apr 28, 2016 at 10:50:20 PM

Latest Report: Apr 28, 2016 at 9:50 PM


Visibility: 10 mi

Pressure: 29.98 "Hg

Humidity: 81%

Dew Point: 34 °F

Location of Menden (Sauerland)Location

Historic Weather in Menden (Sauerland) — Graph

°F

Menden (Sauerland) Temperature Yesterday

Maximum temperature yesterday: 45 °F (at 1:50 PM)
Minimum temperature yesterday: 36 °F (at 5:20 AM)
Average temperature yesterday: 40 °F

High & Low Weather Summary for the Past Weeks

 TemperatureHumidityPressure
High63 °F (Apr 21, 4:50 PM)93% (Apr 20, 7:20 AM)30.48 "Hg (Apr 20, 7:20 AM)
Low32 °F (Apr 20, 5:50 AM)33% (Apr 20, 6:50 PM)29.45 "Hg (Apr 26, 1:50 PM)
Average46 °F64%29.92 "Hg
* Reported Apr 13 9:20 PM — Apr 28 9:20 PM, Menden (Sauerland), Weather by CustomWeather, © 2016

Note: Actual official high and low records may vary slightly from our data, if they occured in-between our weather recording intervals... More about our weather records

Advertising

Menden (Sauerland) Weather History for the Previous 24 Hours

Scroll right to see more
 ConditionsComfort  
Time TempWeatherWind HumidityBarometerVisibility
9:20 PM
Thu, Apr 28
39 °FSunny.7 mph81%29.98 "Hg10 mi
8:50 PM39 °FSunny.9 mph75%29.98 "Hg10 mi
8:20 PM39 °FScattered showers. Passing clouds.8 mph81%29.98 "HgN/A
7:50 PM41 °FScattered clouds.9 mph70%29.98 "HgN/A
7:20 PM41 °FScattered showers. Partly sunny.7 mph76%29.98 "HgN/A
6:50 PM41 °FSprinkles. Clear.14 mph70%29.98 "HgN/A
6:20 PM46 °FSunny.10 mph50%29.95 "Hg10 mi
5:50 PM48 °FSunny.13 mph43%29.95 "Hg10 mi
5:20 PM48 °FPassing clouds.14 mph54%29.95 "HgN/A
4:50 PM48 °FScattered showers. Scattered clouds.6 mph50%29.95 "HgN/A
4:20 PM48 °FScattered clouds.8 mph54%29.95 "HgN/A
3:50 PM46 °FScattered clouds.7 mph57%29.95 "HgN/A
2:50 PM46 °FPassing clouds.6 mph50%29.95 "HgN/A
2:20 PM45 °FPartly sunny.8 mph66%29.98 "HgN/A
1:50 PM41 °FBroken clouds.13 mph76%29.98 "HgN/A
1:20 PM43 °FScattered showers. Partly sunny.12 mph66%29.95 "HgN/A
12:50 PM41 °FScattered clouds.10 mph76%29.95 "HgN/A
12:20 PM43 °FScattered showers. Passing clouds.9 mph66%29.95 "HgN/A
11:50 AM43 °FScattered showers. Scattered clouds.8 mph71%29.95 "HgN/A
11:20 AM41 °FBroken clouds.7 mph76%29.95 "HgN/A
10:50 AM43 °FPartly sunny.8 mph71%29.95 "HgN/A
10:20 AM41 °FPartly sunny.9 mph76%29.95 "HgN/A
9:50 AM39 °FPartly sunny.8 mph81%29.95 "HgN/A
9:20 AM39 °FPartly sunny.7 mph81%29.95 "Hg6 mi
7:50 AM37 °FPartly sunny.9 mph87%29.92 "Hg5 mi
6:50 AM37 °FPassing clouds.6 mph87%29.89 "Hg5 mi
5:50 AM37 °FPassing clouds.8 mph87%29.89 "Hg5 mi
5:20 AM36 °FPassing clouds.7 mph93%29.89 "Hg5 mi
Weather by CustomWeather, © 2016

See weather overviewHow to use our weather pages